Find Yaogan 34-01

NORAD ID: 48340 Int'l Des: 2021-037 Owner: ZLZB Country: CN Constellation: yaogan operational
LEOCIRCULAR

Live Position

Loading 3D Globe...

About Yaogan 34-01

Description loading...

Upcoming Passes

Passes for default location (London). Set your location on the main map for personalized predictions.

Altitude History

Loading altitude history...

Two-Line Element Set

1 48340U 21037A 26109.63250266 .00000034 00000-0 20525-3 0 9994
2 48340 63.4028 296.7922 0082516 357.1884 2.8668 13.45467562244125
Epoch: Apr 19, 2026 • Age: 5 hours

Current Status

Altitude 1031.3 km
Velocity 7.37 km/s
Sub-Earth Point 13.47°N, 146.04°E
Launch Date Apr 30, 2021
Age 4.9 years
Type military

Technical Details

Classification Payload
Mass 500.00 kg
Dry Mass 500.00 kg
Total Mass 500.00 kg
Length 0.50 m
Diameter 0.50 m
Span 1.00 m
Shape Box + 2 Pan
Manufacturer DFHZ
Phase Status In Orbit
Owner/State ZLZB/CN

Most Searched